Location: Chillicothe
(39.7950°N, 93.5520°W)
Time: 00:13:01
(UTC-06:00)

Vanguard 3 - Pass Details

Date: 29 October 2019
Orbit: 508 x 3263 km, 33.4° (Epoch: 18 November)

Event Time Altitude Azimuth Distance (km) Brightness Sun altitude
Rises 01:39:02 0° 264° (W) 2,927 - -62.1°
Reaches altitude 10° 01:41:52 10° 250° (WSW) 1,831 - -61.9°
Maximum altitude 01:44:59 22° 196° (SSW) 1,133 - -61.6°
Drops below altitude 10° 01:47:55 10° 142° (SE) 1,722 - -61.4°
Sets 01:50:30 0° 127° (SE) 2,701 - -61.2°
